Weather History for San Sebastian, Spain

Change the Weather History Date:

Wednesday, July 17, 2013

  Actual Average Record
Temperature  
Mean Temperature 73 °F -  
Max Temperature 80 °F 74 °F 98 °F (2014)
Min Temperature 66 °F 63 °F 55 °F (2000)
Cooling Degree Days 8    
Growing Degree Days 23 (Base 50)    
Moisture  
Dew Point 65 °F    
Average Humidity 73    
Maximum Humidity 88    
Minimum Humidity 50    
Precipitation  
Precipitation 0.00 in - - ()
Sea Level Pressure  
Sea Level Pressure 30.19 in    
Wind  
Wind Speed 4 mph ()    
Max Wind Speed 13 mph    
Max Gust Speed -    
Visibility 6.5 miles    
Events      
Averages and records for this station are not official NWS values.
T = Trace of Precipitation, MM = Missing Value Source: Averaged Metar Reports

Daily Weather History Graph

Daily Weather History Graph

Search for Another Location

Airport:

Trip Planner

Search our weather history database for the weather conditions in past years. The results will help you decide how hot, cold, wet, or windy it might be!

Date:

Astronomy

Jul. 17, 2013 Rise Set
Actual Time 6:42 AM CEST 9:43 PM CEST
Civil Twilight 6:07 AM CEST 10:18 PM CEST
Nautical Twilight 5:24 AM CEST 11:01 PM CEST
Astronomical Twilight 4:32 AM CEST 11:53 PM CEST
Moon 4:13 PM CEST (7/17) 1:43 AM CEST (7/17)
Length of Visible Light 16h 10m
Length of Day
15h 01m
Waxing Gibbous, 64% of the Moon is Illuminated
Jul 17
Waxing Gibbous
Jul 22
Full
Jul 29
Last Quarter
Aug 6
New
Aug 14
First Quarter

Hourly Weather History & Observations

Time (CEST) Temp. Dew Point Humidity Pressure Visibility Wind Dir Wind Speed Gust Speed Precip Events Conditions
5:30 AM 69.8 °F 66.2 °F 88% 30.18 in 6.2 mi SSW 4.6 mph - N/A   Partly Cloudy
6:00 AM 68.0 °F 64.4 °F 88% 30.18 in 6.2 mi SSW 4.6 mph - N/A   Partly Cloudy
6:30 AM 68.0 °F 64.4 °F 88% 30.18 in 6.2 mi SSW 5.8 mph - N/A   Partly Cloudy
7:00 AM 68.0 °F 64.4 °F 88% 30.18 in 6.2 mi SSW 5.8 mph - N/A   Partly Cloudy
7:30 AM 68.0 °F 64.4 °F 88% 30.18 in 6.2 mi Variable 2.3 mph - N/A   Scattered Clouds
8:00 AM 67 °F 63 °F 84% 30.21 in 9 mi South 2.3 mph - -   Partly Cloudy
8:00 AM 68.0 °F 64.4 °F 88% 30.18 in 6.2 mi Variable 2.3 mph - N/A   Scattered Clouds
8:30 AM 68.0 °F 64.4 °F 88% 30.21 in 6.2 mi Variable 2.3 mph - N/A   Scattered Clouds
9:00 AM 69.8 °F 64.4 °F 83% 30.21 in 6.2 mi Variable 2.3 mph - N/A   Mostly Cloudy
9:30 AM 71.6 °F 66.2 °F 83% 30.21 in 6.2 mi SSW 3.5 mph - N/A   Mostly Cloudy
10:00 AM 73.4 °F 64.4 °F 73% 30.21 in 6.2 mi SSW 4.6 mph - N/A   Mostly Cloudy
10:30 AM 73.4 °F 64.4 °F 73% 30.21 in 6.2 mi SSW 5.8 mph - N/A   Mostly Cloudy
11:00 AM 75 °F 64 °F 62% 30.22 in 9 mi SW 2.2 mph - -   Mostly Cloudy
11:00 AM 75.2 °F 64.4 °F 69% 30.21 in 6.2 mi Variable 1.2 mph - N/A   Mostly Cloudy
11:30 AM 75.2 °F 64.4 °F 69% 30.21 in 6.2 mi Variable 3.5 mph - N/A   Mostly Cloudy
12:00 PM 75.2 °F 64.4 °F 69% 30.21 in 6.2 mi WSW 4.6 mph - N/A   Partly Cloudy
12:30 PM 77.0 °F 64.4 °F 65% 30.21 in 6.2 mi Variable 5.8 mph - N/A   Partly Cloudy
1:00 PM 77.0 °F 64.4 °F 65% 30.21 in 6.2 mi SW 6.9 mph - N/A   Partly Cloudy
1:30 PM 78.8 °F 64.4 °F 61% 30.21 in 6.2 mi SW 4.6 mph - N/A   Partly Cloudy
2:00 PM 80 °F 65 °F 50% 30.21 in 9 mi WNW 13.4 mph - -   Scattered Clouds
2:00 PM 77.0 °F 64.4 °F 65% 30.21 in 6.2 mi Variable 5.8 mph - N/A   Partly Cloudy
2:30 PM 77.0 °F 66.2 °F 69% 30.21 in 6.2 mi Variable 5.8 mph - N/A   Partly Cloudy
3:00 PM 77.0 °F 66.2 °F 69% 30.18 in 6.2 mi Variable 8.1 mph - N/A   Scattered Clouds
3:30 PM 77.0 °F 66.2 °F 69% 30.18 in 6.2 mi Variable 6.9 mph - N/A   Mostly Cloudy
4:00 PM 77.0 °F 66.2 °F 69% 30.18 in 6.2 mi Variable 6.9 mph - N/A   Mostly Cloudy
4:30 PM 77.0 °F 66.2 °F 69% 30.18 in 6.2 mi Variable 5.8 mph - N/A   Scattered Clouds
5:00 PM 77 °F 66 °F 62% 30.19 in 9 mi WNW 4.6 mph - -   Partly Cloudy
5:00 PM 77.0 °F 66.2 °F 69% 30.18 in 6.2 mi Variable 4.6 mph - N/A   Scattered Clouds
5:30 PM 75.2 °F 66.2 °F 73% 30.18 in 6.2 mi West 4.6 mph - N/A   Scattered Clouds
6:00 PM 75.2 °F 64.4 °F 69% 30.18 in 6.2 mi Variable 5.8 mph - N/A   Scattered Clouds
6:30 PM 75.2 °F 64.4 °F 69% 30.18 in 6.2 mi Variable 4.6 mph - N/A   Scattered Clouds
7:00 PM 75.2 °F 64.4 °F 69% 30.18 in 6.2 mi Variable 3.5 mph - N/A   Partly Cloudy
7:30 PM 75.2 °F 64.4 °F 69% 30.18 in 6.2 mi Variable 4.6 mph - N/A   Partly Cloudy
8:00 PM 73.4 °F 64.4 °F 73% 30.18 in 6.2 mi SW 5.8 mph - N/A   Partly Cloudy
8:30 PM 73.4 °F 64.4 °F 73% 30.18 in 6.2 mi SW 4.6 mph - N/A   Partly Cloudy
9:00 PM 73.4 °F 64.4 °F 73% 30.18 in 6.2 mi Variable 2.3 mph - N/A   Partly Cloudy
9:30 PM 71.6 °F 64.4 °F 78% 30.18 in 6.2 mi Variable 2.3 mph - N/A   Partly Cloudy